[[{"header":{"parameterUnit":"m.s-1","parameterCategory":1,"la1":30.2991,"la2":30.254,"lo1":-89.0895,"lo2":-89.0444,"dy":0.0017,"dx":0.0017,"nx":28,"ny":28,"refTime":"2025-03-12T03:00:00:Z","depth":0,"parameterNumber":2,"parameterNumberName":"U-component_of_WINDS"},"data":[0,0,0,0,0,0,0,0,0,0,0,0,0,0,0,0,0,0,0,0,0,0,0,0,0,0,0,0,0,0,0,0,0,0,0,0,0,0,0,0,0,0,0,0,0,0,0,0,0,0,0,0,0,0,0,0,0,0,-1.3579,-1.3578,0,-1.3545,-1.3545,-1.3545,-1.3545,-1.3546,-1.3546,-1.3546,-1.3509,-1.3508,-1.3506,0,0,0,0,0,0,0,0,0,0,0,0,0,-1.364,-1.3639,-1.3579,-1.3578,-1.3578,-1.3545,-1.3545,-1.3544,-1.3545,-1.3546,-1.3546,-1.3547,-1.3509,-1.3508,-1.3506,0,0,0,0,0,0,0,0,0,0,0,0,0,-1.3611,-1.3638,-1.3579,-1.3574,-1.3574,-1.3545,-1.3545,-1.3544,-1.3545,-1.3546,-1.3546,-1.3547,-1.351,-1.3508,-1.3506,-1.3479,0,0,-1.3499,-1.3498,0,0,0,0,0,0,0,0,-1.3612,-1.3608,-1.3575,-1.3575,-1.3574,-1.355,-1.3553,-1.3522,-1.3545,-1.3556,-1.3546,-1.3547,-1.3522,-1.3519,-1.3511,-1.3477,-1.3476,-1.3499,-1.3498,-1.3497,-1.3496,0,0,0,0,0,0,0,-1.3614,-1.361,-1.3565,-1.3575,-1.3574,-1.3573,-1.357,-1.3547,-1.3535,-1.3555,-1.3555,-1.3551,-1.3522,-1.3513,-1.351,-1.3475,-1.3499,-1.3497,-1.3496,-1.3495,-1.3417,-1.3416,0,0,0,0,0,0,-1.3618,-1.3611,-1.3566,-1.3564,-1.3595,-1.3571,-1.3568,-1.3557,-1.3536,-1.3533,-1.355,-1.3551,-1.3516,-1.3513,-1.3509,-1.3475,-1.3497,-1.3495,-1.3494,-1.3418,-1.3417,-1.3416,0,0,0,0,0,0,-1.3619,-1.3614,-1.3568,-1.3588,-1.3582,-1.357,-1.3558,-1.3556,-1.3547,-1.3532,-1.353,-1.3544,-1.3517,-1.3512,-1.3486,-1.3474,-1.3494,-1.3492,-1.3419,-1.3417,-1.3416,-1.3408,0,0,0,0,0,0,-1.3621,-1.3614,-1.3604,-1.3588,-1.3581,-1.3547,-1.3557,-1.3555,-1.3544,-1.3545,-1.3526,-1.3523,-1.3517,-1.349,-1.3484,-1.3471,-1.349,-1.342,-1.3418,-1.3417,-1.3409,-1.3406,-1.3404,0,0,0,0,0,-1.3623,-1.3603,-1.3604,-1.3598,-1.3569,-1.3546,-1.3542,-1.3536,-1.3543,-1.3533,-1.3523,-1.3524,-1.3477,-1.3487,-1.3481,-1.3467,-1.342,-1.3418,-1.3417,-1.341,-1.3407,-1.3404,0,0,0,0,0,0,-1.3617,-1.3601,-1.3602,-1.3576,-1.3562,-1.3546,-1.3533,-1.3533,-1.3517,-1.3518,-1.3511,-1.3506,-1.3481,-1.3472,-1.3484,-1.344,-1.3449,-1.3446,-1.3446,-1.3443,-1.3441,-1.3442,-1.3489,0,0,0,0,0,-1.3613,-1.3597,-1.3583,-1.3562,-1.3555,-1.3545,-1.3535,-1.3532,-1.3517,-1.3511,-1.35,-1.3485,-1.3467,-1.3455,-1.3437,-1.3409,-1.3403,-1.3396,-1.3393,-1.3392,-1.3388,-1.3371,-1.3367,-1.341,-1.341,-1.341,0,0,-1.3604,-1.3593,-1.3583,-1.356,-1.3549,-1.3532,-1.354,-1.3521,-1.3508,-1.3508,-1.3483,-1.3475,-1.3457,-1.343,-1.3418,-1.3422,-1.3376,-1.3389,-1.3388,-1.3385,-1.3369,-1.3365,-1.3362,-1.3409,-1.3409,-1.3409,0,0,-1.3578,-1.3569,-1.3549,-1.3539,-1.3523,-1.3517,-1.3512,-1.3496,-1.349,-1.3466,-1.3466,-1.3449,-1.3418,-1.3406,-1.3395,-1.3366,-1.3365,-1.336,-1.3346,-1.333,-1.3327,-1.3324,-1.3311,-1.3307,-1.3357,-1.3357,-1.3357,0,-1.3568,-1.3543,-1.3539,-1.352,-1.3509,-1.3511,-1.349,-1.348,-1.3459,-1.3451,-1.3456,-1.3417,-1.3406,-1.3375,-1.3368,-1.336,-1.3354,-1.3361,-1.3328,-1.3325,-1.3322,-1.331,-1.3306,-1.3357,-1.3357,-1.3357,-1.3357,0,-1.3531,-1.3513,-1.3499,-1.348,-1.3468,-1.3448,-1.3441,-1.3429,-1.3427,-1.342,-1.3395,-1.3381,-1.3361,-1.3354,-1.3351,-1.3322,-1.3325,-1.333,-1.3338,-1.3317,-1.3306,-1.3301,-1.3356,-1.3356,-1.3356,-1.3356,0,0,-1.3498,-1.3478,-1.3473,-1.3464,-1.3447,-1.3432,-1.3413,-1.3394,-1.3383,-1.3369,-1.3351,-1.3325,-1.3329,-1.3318,-1.3314,-1.33,-1.3276,-1.3306,-1.3305,-1.3299,-1.3241,-1.3237,-1.3232,-1.3276,-1.3275,-1.3275,-1.3242,0,-1.347,-1.3435,-1.3432,-1.3401,-1.3383,-1.3385,-1.3367,-1.3354,-1.3348,-1.3331,-1.3324,-1.3305,-1.3312,-1.3305,-1.3291,-1.3282,-1.3264,-1.3284,-1.3258,-1.3257,-1.326,-1.3226,-1.3221,-1.3191,-1.3238,-1.3237,-1.3237,0,-1.3431,-1.3416,-1.3383,-1.3369,-1.3361,-1.3346,-1.3328,-1.3313,-1.3298,-1.3294,-1.3282,-1.328,-1.3259,-1.327,-1.324,-1.3254,-1.3243,-1.3237,-1.3236,-1.3231,-1.3244,-1.3219,-1.3181,-1.3176,-1.323,-1.3231,-1.3231,0,-1.3408,-1.3381,-1.3357,-1.335,-1.3332,-1.3321,-1.3313,-1.33,-1.3288,-1.3273,-1.3265,-1.3247,-1.3236,-1.3222,-1.3215,-1.3224,-1.3184,-1.3196,-1.3179,-1.3179,-1.3169,-1.3169,-1.3127,-1.3165,-1.3165,-1.3166,-1.3166,0,-1.3375,-1.3355,-1.3347,-1.3332,-1.3309,-1.3305,-1.3282,-1.3275,-1.3263,-1.3246,-1.3246,-1.323,-1.3223,-1.3206,-1.3201,-1.3176,-1.3171,-1.3166,-1.3165,-1.3165,-1.3165,-1.3156,-1.3157,-1.3164,-1.3165,-1.3165,-1.3165,0,-1.3345,-1.334,-1.3314,-1.33,-1.3296,-1.3279,-1.3267,-1.3252,-1.3246,-1.3225,-1.322,-1.321,-1.319,-1.3182,-1.3157,-1.3154,-1.3124,-1.3125,-1.3129,-1.3128,-1.3111,-1.3112,-1.306,-1.3052,-1.3098,-1.3097,-1.3097,0,-1.3323,-1.3308,-1.3292,-1.3282,-1.3273,-1.3256,-1.3245,-1.3241,-1.3229,-1.3211,-1.3198,-1.3179,-1.3162,-1.313,-1.3119,-1.31,-1.31,-1.3083,-1.3097,-1.3097,-1.3097,-1.3097,-1.3095,-1.3079,-1.3079,-1.3079,-1.3078,0,-1.3285,-1.3283,-1.3267,-1.325,-1.3237,-1.3223,-1.3209,-1.32,-1.3194,-1.3181,-1.316,-1.3148,-1.3123,-1.3103,-1.3083,-1.3074,-1.3074,-1.3075,-1.3069,-1.3068,-1.307,-1.3067,-1.312,-1.3075,-1.3075,-1.3076,-1.3076,-1.3076,-1.3257,-1.3242,-1.3229,-1.3211,-1.3201,-1.3189,-1.3174,-1.3167,-1.315,-1.313,-1.3129,-1.3106,-1.3092,-1.3066,-1.3056,-1.3038,-1.3043,-1.3035,-1.3033,-1.3031,-1.3029,-1.3075,-1.3035,-1.3035,-1.3035,-1.3035,-1.3035,0,-1.3216,-1.3208,-1.3192,-1.3173,-1.3159,-1.3163,-1.3148,-1.3136,-1.3116,-1.3104,-1.3088,-1.3064,-1.3045,-1.3034,-1.3014,-1.3001,-1.3001,-1.2996,-1.2996,-1.2993,-1.3027,-1.3032,-1.2997,-1.2997,-1.2997,-1.2997,-1.2997,-1.2997,-1.3193,-1.3169,-1.3165,-1.3136,-1.3128,-1.3107,-1.3098,-1.3086,-1.3076,-1.3049,-1.3034,-1.3027,-1.3015,-1.2994,-1.2976,-1.2973,-1.2965,-1.2959,-1.2957,-1.2987,-1.2991,-1.2995,-1.3,-1.2958,-1.2958,-1.2924,-1.2924,-1.2924]},{"header":{"parameterUnit":"m.s-1","parameterCategory":1,"la1":30.2991,"la2":30.254,"lo1":-89.0895,"lo2":-89.0444,"dy":0.0017,"dx":0.0017,"nx":28,"ny":28,"refTime":"2025-03-12T03:00:00:Z","depth":0,"parameterNumber":3,"parameterNumberName":"V-component_of_WINDS"},"data":[0,0,0,0,0,0,0,0,0,0,0,0,0,0,0,0,0,0,0,0,0,0,0,0,0,0,0,0,0,0,0,0,0,0,0,0,0,0,0,0,0,0,0,0,0,0,0,0,0,0,0,0,0,0,0,0,0,0,3.2308,3.2309,0,3.247,3.2472,3.2474,3.2515,3.2514,3.2513,3.2512,3.2676,3.2681,3.2686,0,0,0,0,0,0,0,0,0,0,0,0,0,3.2029,3.2034,3.2307,3.2309,3.2312,3.247,3.2472,3.2475,3.2515,3.2514,3.2513,3.2512,3.2674,3.268,3.2686,0,0,0,0,0,0,0,0,0,0,0,0,0,3.2167,3.2036,3.2307,3.2351,3.2357,3.247,3.2472,3.2475,3.2516,3.2514,3.2512,3.2511,3.2672,3.2679,3.2687,3.2767,0,0,3.2712,3.2715,0,0,0,0,0,0,0,0,3.2159,3.2177,3.2343,3.2348,3.2355,3.2471,3.2434,3.2573,3.2516,3.2455,3.2512,3.251,3.2608,3.2622,3.2655,3.2775,3.2782,3.2712,3.2717,3.2721,3.2723,0,0,0,0,0,0,0,3.2149,3.217,3.2372,3.2345,3.2352,3.2362,3.238,3.2461,3.2538,3.246,3.2464,3.2483,3.2611,3.2648,3.2659,3.2784,3.2712,3.2719,3.2724,3.2727,3.2979,3.2981,0,0,0,0,0,0,3.2133,3.2162,3.2367,3.2377,3.2251,3.2368,3.2388,3.2435,3.2538,3.2552,3.2484,3.2484,3.2635,3.265,3.2665,3.2768,3.2721,3.2728,3.2733,3.2977,3.298,3.2982,0,0,0,0,0,0,3.2126,3.215,3.236,3.227,3.2298,3.2375,3.2427,3.2439,3.2475,3.2555,3.2569,3.2507,3.2634,3.2654,3.2742,3.2774,3.2732,3.2739,3.2975,3.2978,3.2981,3.2971,0,0,0,0,0,0,3.2118,3.2148,3.218,3.2271,3.2302,3.2435,3.2429,3.2443,3.2489,3.2491,3.258,3.2594,3.2634,3.273,3.275,3.2784,3.2745,3.2973,3.2976,3.298,3.2969,3.2973,3.2977,0,0,0,0,0,3.2108,3.2169,3.2181,3.2206,3.2344,3.2437,3.2455,3.2501,3.2492,3.2524,3.2576,3.2591,3.2767,3.2739,3.2762,3.2798,3.2971,3.2975,3.298,3.2967,3.2973,3.2977,0,0,0,0,0,0,3.2079,3.2182,3.2196,3.2289,3.2354,3.2444,3.2486,3.2505,3.2573,3.2572,3.2626,3.2646,3.2731,3.2773,3.274,3.2882,3.2869,3.2878,3.2851,3.2857,3.2861,3.285,3.2752,0,0,0,0,0,3.2083,3.2151,3.2237,3.2311,3.2343,3.2408,3.2451,3.2481,3.255,3.2577,3.2635,3.2701,3.2771,3.2816,3.2885,3.2975,3.2995,3.3011,3.3015,3.3018,3.3026,3.3078,3.3086,3.2996,3.2996,3.2996,0,0,3.2093,3.2158,3.2197,3.2306,3.236,3.2429,3.2431,3.2503,3.2555,3.2588,3.2676,3.272,3.2797,3.2887,3.2929,3.2925,3.3055,3.3024,3.3025,3.3032,3.3083,3.3092,3.3099,3.2999,3.2998,3.2998,0,0,3.2146,3.2201,3.227,3.2324,3.2406,3.245,3.2466,3.2553,3.2585,3.2674,3.2701,3.2761,3.2881,3.2935,3.2978,3.3052,3.3069,3.3073,3.3094,3.3145,3.3152,3.3158,3.3187,3.3196,3.308,3.308,3.308,0,3.2147,3.2253,3.2302,3.2374,3.2421,3.2456,3.2525,3.2575,3.2675,3.2707,3.27,3.2852,3.2906,3.301,3.3028,3.3061,3.3082,3.3064,3.3147,3.3154,3.3161,3.3188,3.3199,3.308,3.308,3.308,3.308,0,3.2252,3.2324,3.2369,3.2467,3.2519,3.2589,3.2648,3.2695,3.2721,3.2765,3.2855,3.2921,3.3005,3.3031,3.3056,3.3139,3.3134,3.3136,3.3125,3.3169,3.3196,3.3206,3.308,3.308,3.308,3.308,0,0,3.2291,3.2416,3.2432,3.2477,3.2571,3.2628,3.2699,3.2782,3.2822,3.2889,3.2951,3.3051,3.3055,3.3104,3.3135,3.3179,3.3235,3.3176,3.3179,3.3187,3.3332,3.3331,3.3343,3.3247,3.3249,3.325,3.3327,0,3.2358,3.2489,3.2535,3.2643,3.2711,3.2745,3.2807,3.2871,3.2913,3.2977,3.3023,3.3095,3.3093,3.3123,3.3168,3.3219,3.3266,3.3214,3.3305,3.3308,3.3287,3.3357,3.3356,3.3424,3.3337,3.3339,3.334,0,3.2453,3.2524,3.2639,3.2725,3.2755,3.2811,3.2892,3.2952,3.3024,3.3052,3.3107,3.3136,3.3211,3.3194,3.3299,3.3263,3.3302,3.3333,3.3337,3.3349,3.3328,3.3372,3.3447,3.3458,3.3357,3.3355,3.3354,0,3.2473,3.2597,3.2682,3.272,3.2822,3.286,3.2904,3.2976,3.3023,3.3093,3.3124,3.3201,3.3243,3.3302,3.335,3.3332,3.3451,3.3437,3.3477,3.3476,3.3502,3.35,3.3587,3.3524,3.3524,3.3524,3.3524,0,3.2544,3.2613,3.2693,3.2746,3.2824,3.2876,3.2953,3.2998,3.3062,3.3124,3.3156,3.3213,3.3272,3.3337,3.3374,3.3457,3.3475,3.35,3.351,3.3499,3.3496,3.3527,3.3524,3.3527,3.3526,3.3525,3.3525,0,3.2581,3.2637,3.2732,3.2822,3.2846,3.29,3.2976,3.3028,3.3072,3.315,3.3171,3.324,3.3318,3.3372,3.347,3.3496,3.3586,3.3593,3.3562,3.3567,3.3605,3.3601,3.3716,3.3734,3.3657,3.3658,3.3658,0,3.2623,3.2678,3.2773,3.2818,3.2863,3.2933,3.2982,3.3035,3.3085,3.3172,3.3214,3.3294,3.3361,3.3484,3.3542,3.3618,3.3629,3.3664,3.3641,3.3629,3.3632,3.363,3.3636,3.3668,3.3669,3.3669,3.367,0,3.2693,3.2718,3.2789,3.2869,3.2927,3.2992,3.3058,3.3092,3.3156,3.321,3.3291,3.3343,3.3445,3.3525,3.3607,3.3651,3.3672,3.3676,3.369,3.3681,3.3661,3.3674,3.3574,3.3674,3.3674,3.3673,3.3673,3.3673,3.2736,3.2786,3.2862,3.294,3.2995,3.3055,3.311,3.3161,3.323,3.3319,3.3345,3.3429,3.35,3.3613,3.3658,3.3725,3.3722,3.3741,3.3746,3.3751,3.3752,3.3649,3.3739,3.3739,3.3739,3.3739,3.3739,0,3.2809,3.286,3.2931,3.3022,3.3083,3.3098,3.3171,3.3221,3.3295,3.3361,3.3427,3.352,3.3597,3.3662,3.3742,3.3782,3.3794,3.3802,3.38,3.381,3.3749,3.373,3.3791,3.3791,3.3791,3.3791,3.3791,3.3791,3.2855,3.2943,3.2977,3.3092,3.3141,3.3226,3.3267,3.3323,3.3376,3.3479,3.3544,3.3586,3.3651,3.3736,3.3808,3.3825,3.3853,3.3859,3.3879,3.382,3.3814,3.3809,3.3792,3.3865,3.3865,3.3935,3.3936,3.3936]}]]